SCP
0 0 0 0 0 0 0 0 0 0 -0 -0 -0 -0 -0 0 0 -0 -0 -0 -0 -0 -0 -0 -0 0 0 0 0 0 -0 0 0 0 0 0 -0 0 0 0 0 0 0 0 0 0 0
0 0 0 0 0 0 0 0 0 0 0 0 -0 -0 -0 0 0 0 0 -0 -0 -0 -0 -0 0 0 0 -0 0 0 -0 0 0 0 0 0 -0 0 0 0 0 0 0 0 0 0 0
0 0 0 0 -0 -0 -0 0 0 0 0 0 0 -0 -0 0 0 0 0 0 -0 -0 -0 -0 0 0 0 0 0 0 -0 0 0 0 0 0 0 0 0 0 0 0 0 0 0 0 0
0 0 0 0 -0 -0 -0 -0 0 -0 -0 -0 -0 -0 -0 -0 0 0 -0 0 -0 -0 0 0 0 0 0 0 0 0 0 0 0 0 0 0 -0 0 0 0 0 0 0 0 0 0 0
0 0 0 0 0 -0 -0 -0 -0 -0 -0 -0 -0 -0 -0 -0 -0 -0 -0 -0 0 -0 0 0 0 0 0 0 0 0 0 0 0 0 0 0 0 -0 0 0 0 0 0 0 0 0 0
0 0 0 0 0 0 0 -0 -0 -0 -0 -0 -0 -0 -0 -0 -0 -0 -0 0 -0 -0 0 0 0 0 0 0 0 0 0 0 0 0 0 0 0 0 0 0 0 0 0 0 0 0 0
0 0 0 0 0 0 0 0 -0 -0 -0 -0 -0 -0 -0 -0 -0 -0 0 0 0 0 0 0 0 0 0 0 0 0 0 0 0 0 -0 -0 0 0 -0 -0 0 0 0 0 0 0 0
0 0 0 0 0 0 0 0 0 -0 -0 -0 -0 -0 -0 -0 -0 -0 0 0 0 0 0 0 0 0 -0 0 0 0 0 0 0 -0 0 0 0 -0 -0 0 0 0 0 0 0 0 0
0 0 0 0 0 0 0 0 0 -0 -0 -0 -0 -0 -0 -0 -0 0 0 -0 0 0 0 0 0 0 0 0 0 0 0 0 0 -0 -0 -0 -0 -0 -0 0 0 0 0 0 0 0 0
0 0 0 0 0 0 0 0 0 0 -0 -0 -0 -0 -0 -0 0 0 0 0 0 -0 0 0 0 0 0 0 0 0 0 0 0 -0 -0 -0 0 -0 -0 0 0 0 0 0 0 0 0
0 0 0 0 0 0 0 0 0 0 0 0 0 -0 -0 0 0 0 0 -0 0 0 0 0 0 0 0 0 0 0 0 0 -0 -0 0 0 -0 0 0 0 0 0 0 0 0 0 0
0 0 0 0 0 0 0 0 0 0 0 0 0 -0 0 -0 0 -0 -0 0 0 0 0 0 -0 0 0 0 0 0 0 0 0 0 0 0 0 0 0 0 0 0 0 0 0 0 0
0 0 0 0 0 0 0 0 0 0 0 0 0 -0 -0 0 0 0 -0 0 0 0 0 -0 -0 0 0 0 0 0 0 0 0 0 0 0 0 -0 0 0 0 0 0 0 0 0 0
0 0 0 0 0 0 0 0 0 0 0 0 0 -0 -0 0 0 0 0 0 0 0 0 0 -0 -0 0 0 0 0 0 0 0 0 0 0 0 0 -0 0 -0 0 0 0 0 0 0
0 0 0 0 0 0 0 0 0 0 0 0 0 -0 0 0 -0 0 0 0 0 0 0 0 0 0 -0 -0 -0 -0 -0 -0 -0 0 0 0 0 0 -0 0 0 0 0 0 0 0 0
0 0 0 0 0 0 0 0 0 0 0 0 0 0 0 0 0 0 0 0 0 0 0 0 0 0 0 0 -0 -0 -0 0 -0 0 0 0 0 -0 0 0 0 0 0 0 0 0 0
0 0 0 0 0 0 0 0 0 0 0 0 0 0 0 0 0 0 0 0 0 0 0 0 0 0 0 0 -0 -0 -0 -0 0 0 0 0 0 0 0 0 0 0 0 0 0 0 0
0 0 0 0 0 0 0 0 0 0 0 0 0 0 0 0 0 0 0 0 0 0 0 0 0 0 0 0 0 0 0 -0 0 -0 -0 0 0 0 0 0 0 0 0 0 0 0 0
0 0 0 0 0 0 0 0 0 0 0 0 0 0 0 0 0 0 0 0 0 0 0 0 0 0 0 0 0 0 0 0 0 -0 0 0 0 0 0 0 0 0 0 0 0 0 0
0 0 0 0 0 0 0 0 0 0 0 0 0 0 0 0 0 0 0 0 0 0 0 0 0 0 0 0 0 0 0 0 0 0 0 0 0 0 0 0 0 0 0 0 0 0 0
0 0 0 0 0 0 0 0 0 0 0 0 0 0 0 0 0 0 0 0 0 0 0 0 0 0 0 0 0 0 0 0 0 0 0 0 0 0 0 0 0 0 0 0 0 0 0
0 0 0 0 0 0 0 0 0 0 0 0 0 0 0 0 0 0 0 0 0 0 0 0 0 0 0 0 0 0 0 0 0 0 0 0 0 0 0 0 0 0 0 0 0 0 0
0 0 0 0 0 0 0 0 0 0 0 0 0 0 0 0 0 0 0 0 0 0 0 0 0 0 0 0 0 0 0 0 0 0 0 0 0 0 0 0 0 0 0 0 0 0 0
0 0 0 0 0 0 0 0 0 0 0 0 0 0 0 0 0 0 0 0 0 0 0 0 0 0 0 0 0 0 0 0 0 0 0 0 0 0 0 0 0 0 0 0 0 0 0
0 0 0 0 0 0 0 0 0 0 0 0 0 0 0 0 0 0 0 0 0 0 0 0 0 0 0 0 0 0 0 0 0 0 0 0 0 0 0 0 0 0 0 0 0 0 0
0 0 0 0 0 0 0 0 0 0 0 0 0 0 0 0 0 0 0 0 0 0 0 0 0 0 0 0 -0 0 -0 0 0 0 0 0 0 0 0 0 0 0 0 0 0 0 0
0 0 0 0 0 0 0 0 0 0 0 0 0 0 0 0 0 0 0 0 0 0 0 0 0 0 0 0 0 0 0 0 0 0 0 0 0 0 0 0 0 0 0 0 0 0 0
0 0 0 0 0 0 0 0 0 0 0 0 0 0 0 0 0 0 0 0 0 0 0 0 0 0 0 0 0 0 0 0 0 0 0 0 0 0 0 0 0 0 0 0 0 0 0
0 0 0 0 0 0 0 0 0 0 0 0 0 0 0 0 0 0 0 0 0 0 0 0 0 0 1 0 0 0 0 0 0 0 0 0 0 0 0 0 0 0 0 0 0 0 0
Wind_Speed_500mb
23 24 25 27 27 28 27 28 27 28 29 32 34 35 35 37 39 42 48 52 42 40 31 9 2 6 11 7 6 1 9 11 14 1 4 8 26 21 15 10 9 7 2 20 35 49 35
25 24 23 26 29 29 28 27 27 28 29 30 33 34 35 36 39 42 47 48 41 36 25 4 2 11 11 5 8 13 19 14 9 5 15 12 14 21 24 9 6 2 8 17 31 37 36
22 24 24 24 26 28 29 28 27 28 29 30 31 33 33 36 39 43 48 41 39 30 20 2 5 13 11 7 11 17 19 10 2 6 8 20 10 5 18 12 14 8 9 8 15 28 13
21 21 22 25 26 27 28 27 28 29 29 30 31 32 32 34 39 41 39 39 44 22 10 2 7 15 10 12 10 16 15 13 4 8 12 11 12 5 4 22 10 8 8 9 10 24 21
20 20 20 23 25 25 25 25 26 29 29 30 31 30 31 33 36 39 35 46 24 18 20 1 12 11 6 13 12 16 19 15 7 16 19 19 21 6 4 8 9 11 3 6 4 24 11
19 21 21 22 24 23 23 23 25 29 28 30 31 29 30 31 33 35 36 39 3 5 39 5 5 4 7 3 10 18 18 12 10 14 7 10 7 8 7 7 9 10 4 9 11 13 14
19 20 21 22 23 23 22 23 25 27 28 30 31 28 29 29 30 31 38 40 26 8 40 9 7 11 13 9 10 19 21 13 10 7 4 7 6 9 18 20 14 8 4 10 5 13 14
20 21 22 22 23 23 22 23 25 27 29 30 31 29 28 27 27 26 25 39 39 28 23 30 25 34 27 13 5 12 19 11 4 3 5 14 8 14 26 12 10 8 5 10 9 7 5
22 22 23 24 24 23 22 24 24 26 28 29 30 30 28 26 26 13 15 29 30 27 10 19 14 18 11 10 8 18 21 9 4 1 4 7 18 23 15 9 7 7 11 11 9 4 5
24 24 24 25 25 24 22 23 25 26 28 29 29 30 30 29 16 23 4 25 29 25 7 10 8 9 16 9 6 17 25 9 1 4 7 9 4 9 22 14 11 8 16 8 7 6 2
27 25 26 26 26 26 23 23 25 26 27 29 29 31 29 28 31 24 24 29 28 10 4 2 9 7 22 17 6 13 26 24 9 9 5 15 8 9 12 11 7 4 16 7 5 6 5
31 28 27 27 27 27 25 24 24 26 27 29 29 32 29 28 28 13 29 33 15 8 2 4 13 10 9 13 6 2 13 18 3 7 4 6 13 5 9 8 0 15 11 12 7 7 8
34 31 29 30 29 27 26 25 24 25 28 29 30 30 33 28 18 25 26 24 9 5 8 4 8 7 9 7 4 5 3 1 6 5 9 12 11 13 4 8 13 14 10 7 10 9 9
36 33 31 30 31 28 27 25 25 24 28 29 31 32 32 25 21 12 20 9 3 4 11 8 6 5 10 10 9 6 9 5 4 9 6 4 17 4 4 5 9 4 9 10 8 4 9
34 34 32 31 31 30 27 25 24 23 26 29 31 29 30 9 9 7 7 6 8 8 9 13 7 7 7 5 8 6 12 13 15 17 17 9 12 8 5 7 5 6 3 10 10 4 5
33 34 33 31 31 30 28 24 23 23 22 26 30 29 21 14 14 5 8 8 8 10 14 7 6 2 4 7 10 12 11 7 10 25 20 13 8 7 8 5 17 5 7 7 6 1 6
37 34 34 32 31 30 27 23 21 21 18 20 24 19 4 24 14 1 4 10 11 25 18 2 4 3 2 4 9 6 4 10 9 7 15 9 8 15 1 8 13 4 3 12 9 8 9
42 37 36 33 31 30 27 22 19 18 15 13 12 7 12 27 6 4 3 8 15 16 14 10 3 1 4 4 3 7 7 10 15 16 15 6 10 5 13 13 8 4 7 10 9 8 1
43 40 37 35 31 30 27 21 18 15 13 6 8 13 9 26 4 5 11 10 11 9 5 8 7 9 7 9 9 9 1 8 12 4 9 11 4 6 16 15 10 3 6 8 9 6 10
43 42 38 36 32 30 27 21 18 16 12 6 6 5 4 23 14 8 4 10 9 16 8 1 4 8 11 15 11 8 11 12 11 12 15 11 6 10 12 11 5 8 7 9 11 7 7
41 46 41 37 32 29 27 23 21 18 15 9 6 5 5 5 8 7 7 6 9 9 6 5 8 5 3 6 11 12 9 10 9 9 8 9 5 7 10 8 5 8 8 6 13 7 8
40 44 44 38 34 31 28 25 24 22 19 18 4 5 10 11 19 5 14 9 10 7 0 9 7 7 10 9 3 4 4 5 2 13 7 7 3 0 6 6 10 5 13 11 6 2 5
41 45 45 40 35 32 29 27 27 26 23 15 8 7 9 10 9 3 7 10 5 1 5 9 6 7 10 7 11 9 8 5 2 1 3 4 9 6 8 8 9 10 5 4 5 5 4
39 44 44 41 35 33 30 29 30 30 29 24 6 4 3 8 4 2 8 11 4 4 1 2 14 9 6 12 13 9 3 9 6 4 11 9 7 4 5 7 4 9 2 1 12 9 19
38 43 44 42 36 34 31 31 32 33 32 30 28 6 5 5 11 15 19 9 10 4 10 6 7 8 6 8 8 11 12 15 10 12 0 8 9 5 6 6 9 2 6 1 5 2 12
37 46 44 42 36 35 32 33 34 35 34 31 32 25 10 4 8 16 10 14 6 7 10 4 11 7 2 10 8 6 3 7 9 16 11 11 11 9 4 4 7 10 4 6 3 4 11
36 43 42 42 37 36 34 34 36 35 35 32 31 29 16 10 11 11 10 5 13 6 2 7 7 6 5 5 5 5 6 6 5 3 6 7 7 7 2 4 11 6 6 3 3 12 6
38 45 45 42 36 37 35 36 36 35 35 34 32 30 35 11 27 21 20 11 22 10 2 9 6 12 8 8 5 3 4 5 5 5 3 3 5 2 4 3 11 3 8 7 11 17 30
40 41 44 41 37 39 36 37 37 36 35 35 31 28 33 32 17 16 16 15 20 15 14 12 5 6 5 8 1 4 1 4 1 4 4 4 6 6 12 10 9 13 20 16 24 29 42
Wind_Direction_500mb
286 286 290 293 295 295 299 304 308 309 310 314 319 327 333 336 343 346 347 349 348 342 338 330 346 146 146 132 112 93 165 124 112 350 302 146 121 115 140 151 86 56 159 196 177 165 180
286 288 287 288 291 293 297 301 304 307 307 310 313 320 327 333 338 342 346 346 343 336 339 314 212 160 152 156 67 146 145 127 126 349 37 23 188 129 113 87 92 188 113 123 178 183 166
285 291 294 289 288 292 293 296 303 306 307 309 310 316 322 329 334 339 346 347 347 339 337 278 192 170 157 126 91 133 137 148 159 347 356 5 141 234 140 123 114 74 62 30 163 160 172
283 285 287 287 291 291 291 294 299 303 306 309 309 314 317 326 331 338 351 348 341 328 344 289 183 170 158 166 153 153 161 179 210 318 333 332 267 171 53 124 81 101 66 157 213 188 179
291 292 290 288 288 291 293 292 296 300 305 308 310 314 315 322 328 338 353 348 349 64 25 187 170 174 185 186 195 169 186 189 253 307 300 240 216 43 68 75 5 36 218 237 219 216 151
297 297 295 289 289 291 296 297 295 297 304 309 310 314 314 315 327 338 354 358 42 41 6 64 143 184 210 152 260 213 202 223 284 304 87 163 136 69 23 75 242 241 232 242 217 198 175
300 297 297 293 293 296 300 298 296 298 304 308 310 314 311 314 328 338 359 25 42 346 339 250 261 272 268 357 197 226 213 228 257 277 63 82 88 281 236 200 221 169 160 263 236 214 161
298 299 300 299 299 299 299 296 298 300 302 307 310 312 311 315 327 333 11 27 18 327 298 292 271 266 265 288 320 214 209 211 137 254 18 15 299 272 293 171 158 161 198 254 310 40 112
295 302 303 303 302 299 299 296 297 297 299 305 309 310 314 318 323 321 335 4 356 350 274 291 225 241 229 206 197 222 210 202 160 123 84 156 258 330 26 25 126 210 185 228 179 87 56
291 299 302 302 303 301 298 294 294 294 296 301 307 311 318 321 320 335 330 336 340 330 43 274 216 246 193 177 213 216 207 193 119 198 205 224 13 354 310 304 141 240 198 161 148 108 248
284 293 299 300 301 301 297 290 291 291 294 298 305 308 313 318 315 329 318 322 336 310 19 165 186 188 183 173 138 204 210 208 205 210 82 255 350 311 316 266 159 272 69 56 91 121 79
272 285 293 297 297 299 297 290 288 290 292 295 300 303 305 307 310 326 328 320 318 40 323 358 159 166 119 205 217 46 177 204 267 172 192 265 274 237 218 338 271 153 76 54 47 59 26
262 273 285 293 294 296 296 291 286 288 291 292 294 297 298 295 295 319 317 330 37 107 337 269 204 139 166 154 253 164 221 255 175 77 291 349 294 285 222 10 19 51 66 5 7 1 226
254 263 276 287 292 294 295 291 288 287 290 293 293 293 288 287 300 296 323 40 68 275 267 293 138 83 155 160 236 189 147 234 235 109 87 103 330 341 357 178 156 70 128 138 248 252 272
252 256 267 278 288 290 292 292 287 288 292 297 297 296 291 313 225 272 332 65 221 231 291 326 57 93 330 268 186 139 193 206 221 168 168 167 260 309 20 58 25 170 73 164 108 16 38
250 252 260 271 282 286 289 290 286 286 297 306 310 310 304 202 179 277 68 237 253 237 321 4 81 121 144 277 168 156 189 218 228 189 169 210 298 233 202 34 50 129 123 41 21 351 305
243 250 254 264 274 281 284 287 284 283 296 306 319 316 10 176 194 279 157 238 280 297 309 41 15 0 191 266 188 164 176 280 208 139 111 133 122 282 132 182 205 344 36 56 108 126 171
240 243 249 256 268 276 279 281 279 279 291 305 319 319 330 179 130 47 208 206 308 295 358 30 98 336 22 320 94 127 191 230 356 166 138 169 142 223 236 301 222 160 157 135 123 240 222
238 238 243 249 260 270 272 271 266 266 287 306 298 284 197 177 136 290 287 286 272 300 338 16 342 38 10 347 64 45 353 1 36 76 143 180 37 39 350 351 356 355 207 129 104 88 194
238 235 237 244 252 261 264 261 250 247 255 253 291 337 223 223 249 155 331 279 302 304 268 207 295 48 33 15 4 24 25 354 23 77 90 114 99 148 192 212 214 304 283 140 132 123 187
242 232 229 236 245 256 257 249 238 233 235 226 235 271 346 284 267 228 178 279 315 309 358 333 47 38 198 65 2 2 4 3 38 25 62 96 117 195 227 251 239 245 10 171 191 168 188
242 231 226 232 240 243 241 241 237 225 220 233 245 348 338 285 285 231 190 241 214 272 48 351 69 66 64 95 103 313 327 33 56 353 52 6 193 96 317 305 317 317 30 333 40 147 273
246 231 224 228 236 239 237 232 229 226 215 221 221 284 312 299 303 144 221 248 260 180 13 73 91 99 55 344 303 299 263 292 218 180 106 101 138 104 265 345 342 10 323 28 350 6 282
243 229 222 226 233 234 230 229 225 223 218 215 232 257 267 279 297 301 307 296 278 265 219 318 85 103 354 336 319 308 291 337 236 238 172 133 100 108 226 18 25 246 15 190 125 32 1
237 233 223 225 231 230 224 224 224 223 223 217 226 266 314 280 295 310 318 301 312 7 206 188 78 123 50 18 51 23 349 7 332 33 240 149 128 118 142 185 275 20 306 31 190 302 339
232 231 225 224 228 227 220 220 221 222 225 222 224 240 255 289 247 322 314 354 2 6 346 87 50 171 15 76 66 103 233 242 307 339 94 73 68 112 117 152 204 238 317 303 99 282 348
227 219 229 223 225 224 217 217 219 222 224 221 223 228 220 256 274 346 23 343 352 6 265 332 10 69 29 71 83 142 252 229 269 236 326 3 12 112 116 201 285 269 329 217 91 242 143
221 216 224 222 222 220 214 215 217 220 221 222 218 224 215 250 272 281 286 325 348 9 107 347 68 22 42 67 114 211 174 263 12 5 25 132 112 131 113 84 283 7 295 193 199 187 170
216 219 220 220 218 215 210 213 213 218 219 220 220 224 222 241 273 275 253 276 302 295 321 16 98 130 135 92 115 121 34 35 135 343 341 357 171 197 176 224 284 291 255 233 208 211 220
Wind_Speed_850mb
23 24 25 27 27 28 27 28 27 28 29 32 34 35 35 37 39 42 48 52 42 40 31 9 2 6 11 7 6 1 9 11 14 1 4 8 26 21 15 10 9 7 2 20 35 49 35
25 24 23 26 29 29 28 27 27 28 29 30 33 34 35 36 39 42 47 48 41 36 25 4 2 11 11 5 8 13 19 14 9 5 15 12 14 21 24 9 6 2 8 17 31 37 36
22 24 24 24 26 28 29 28 27 28 29 30 31 33 33 36 39 43 48 41 39 30 20 2 5 13 11 7 11 17 19 10 2 6 8 20 10 5 18 12 14 8 9 8 15 28 13
21 21 22 25 26 27 28 27 28 29 29 30 31 32 32 34 39 41 39 39 44 22 10 2 7 15 10 12 10 16 15 13 4 8 12 11 12 5 4 22 10 8 8 9 10 24 21
20 20 20 23 25 25 25 25 26 29 29 30 31 30 31 33 36 39 35 46 24 18 20 1 12 11 6 13 12 16 19 15 7 16 19 19 21 6 4 8 9 11 3 6 4 24 11
19 21 21 22 24 23 23 23 25 29 28 30 31 29 30 31 33 35 36 39 3 5 39 5 5 4 7 3 10 18 18 12 10 14 7 10 7 8 7 7 9 10 4 9 11 13 14
19 20 21 22 23 23 22 23 25 27 28 30 31 28 29 29 30 31 38 40 26 8 40 9 7 11 13 9 10 19 21 13 10 7 4 7 6 9 18 20 14 8 4 10 5 13 14
20 21 22 22 23 23 22 23 25 27 29 30 31 29 28 27 27 26 25 39 39 28 23 30 25 34 27 13 5 12 19 11 4 3 5 14 8 14 26 12 10 8 5 10 9 7 5
22 22 23 24 24 23 22 24 24 26 28 29 30 30 28 26 26 13 15 29 30 27 10 19 14 18 11 10 8 18 21 9 4 1 4 7 18 23 15 9 7 7 11 11 9 4 5
24 24 24 25 25 24 22 23 25 26 28 29 29 30 30 29 16 23 4 25 29 25 7 10 8 9 16 9 6 17 25 9 1 4 7 9 4 9 22 14 11 8 16 8 7 6 2
27 25 26 26 26 26 23 23 25 26 27 29 29 31 29 28 31 24 24 29 28 10 4 2 9 7 22 17 6 13 26 24 9 9 5 15 8 9 12 11 7 4 16 7 5 6 5
31 28 27 27 27 27 25 24 24 26 27 29 29 32 29 28 28 13 29 33 15 8 2 4 13 10 9 13 6 2 13 18 3 7 4 6 13 5 9 8 0 15 11 12 7 7 8
34 31 29 30 29 27 26 25 24 25 28 29 30 30 33 28 18 25 26 24 9 5 8 4 8 7 9 7 4 5 3 1 6 5 9 12 11 13 4 8 13 14 10 7 10 9 9
36 33 31 30 31 28 27 25 25 24 28 29 31 32 32 25 21 12 20 9 3 4 11 8 6 5 10 10 9 6 9 5 4 9 6 4 17 4 4 5 9 4 9 10 8 4 9
34 34 32 31 31 30 27 25 24 23 26 29 31 29 30 9 9 7 7 6 8 8 9 13 7 7 7 5 8 6 12 13 15 17 17 9 12 8 5 7 5 6 3 10 10 4 5
33 34 33 31 31 30 28 24 23 23 22 26 30 29 21 14 14 5 8 8 8 10 14 7 6 2 4 7 10 12 11 7 10 25 20 13 8 7 8 5 17 5 7 7 6 1 6
37 34 34 32 31 30 27 23 21 21 18 20 24 19 4 24 14 1 4 10 11 25 18 2 4 3 2 4 9 6 4 10 9 7 15 9 8 15 1 8 13 4 3 12 9 8 9
42 37 36 33 31 30 27 22 19 18 15 13 12 7 12 27 6 4 3 8 15 16 14 10 3 1 4 4 3 7 7 10 15 16 15 6 10 5 13 13 8 4 7 10 9 8 1
43 40 37 35 31 30 27 21 18 15 13 6 8 13 9 26 4 5 11 10 11 9 5 8 7 9 7 9 9 9 1 8 12 4 9 11 4 6 16 15 10 3 6 8 9 6 10
43 42 38 36 32 30 27 21 18 16 12 6 6 5 4 23 14 8 4 10 9 16 8 1 4 8 11 15 11 8 11 12 11 12 15 11 6 10 12 11 5 8 7 9 11 7 7
41 46 41 37 32 29 27 23 21 18 15 9 6 5 5 5 8 7 7 6 9 9 6 5 8 5 3 6 11 12 9 10 9 9 8 9 5 7 10 8 5 8 8 6 13 7 8
40 44 44 38 34 31 28 25 24 22 19 18 4 5 10 11 19 5 14 9 10 7 0 9 7 7 10 9 3 4 4 5 2 13 7 7 3 0 6 6 10 5 13 11 6 2 5
41 45 45 40 35 32 29 27 27 26 23 15 8 7 9 10 9 3 7 10 5 1 5 9 6 7 10 7 11 9 8 5 2 1 3 4 9 6 8 8 9 10 5 4 5 5 4
39 44 44 41 35 33 30 29 30 30 29 24 6 4 3 8 4 2 8 11 4 4 1 2 14 9 6 12 13 9 3 9 6 4 11 9 7 4 5 7 4 9 2 1 12 9 19
38 43 44 42 36 34 31 31 32 33 32 30 28 6 5 5 11 15 19 9 10 4 10 6 7 8 6 8 8 11 12 15 10 12 0 8 9 5 6 6 9 2 6 1 5 2 12
37 46 44 42 36 35 32 33 34 35 34 31 32 25 10 4 8 16 10 14 6 7 10 4 11 7 2 10 8 6 3 7 9 16 11 11 11 9 4 4 7 10 4 6 3 4 11
36 43 42 42 37 36 34 34 36 35 35 32 31 29 16 10 11 11 10 5 13 6 2 7 7 6 5 5 5 5 6 6 5 3 6 7 7 7 2 4 11 6 6 3 3 12 6
38 45 45 42 36 37 35 36 36 35 35 34 32 30 35 11 27 21 20 11 22 10 2 9 6 12 8 8 5 3 4 5 5 5 3 3 5 2 4 3 11 3 8 7 11 17 30
40 41 44 41 37 39 36 37 37 36 35 35 31 28 33 32 17 16 16 15 20 15 14 12 5 6 5 8 1 4 1 4 1 4 4 4 6 6 12 10 9 13 20 16 24 29 42
Wind_Direction_850mb
286 286 290 293 295 295 299 304 308 309 310 314 319 327 333 336 343 346 347 349 348 342 338 330 346 146 146 132 112 93 165 124 112 350 302 146 121 115 140 151 86 56 159 196 177 165 180
286 288 287 288 291 293 297 301 304 307 307 310 313 320 327 333 338 342 346 346 343 336 339 314 212 160 152 156 67 146 145 127 126 349 37 23 188 129 113 87 92 188 113 123 178 183 166
285 291 294 289 288 292 293 296 303 306 307 309 310 316 322 329 334 339 346 347 347 339 337 278 192 170 157 126 91 133 137 148 159 347 356 5 141 234 140 123 114 74 62 30 163 160 172
283 285 287 287 291 291 291 294 299 303 306 309 309 314 317 326 331 338 351 348 341 328 344 289 183 170 158 166 153 153 161 179 210 318 333 332 267 171 53 124 81 101 66 157 213 188 179
291 292 290 288 288 291 293 292 296 300 305 308 310 314 315 322 328 338 353 348 349 64 25 187 170 174 185 186 195 169 186 189 253 307 300 240 216 43 68 75 5 36 218 237 219 216 151
297 297 295 289 289 291 296 297 295 297 304 309 310 314 314 315 327 338 354 358 42 41 6 64 143 184 210 152 260 213 202 223 284 304 87 163 136 69 23 75 242 241 232 242 217 198 175
300 297 297 293 293 296 300 298 296 298 304 308 310 314 311 314 328 338 359 25 42 346 339 250 261 272 268 357 197 226 213 228 257 277 63 82 88 281 236 200 221 169 160 263 236 214 161
298 299 300 299 299 299 299 296 298 300 302 307 310 312 311 315 327 333 11 27 18 327 298 292 271 266 265 288 320 214 209 211 137 254 18 15 299 272 293 171 158 161 198 254 310 40 112
295 302 303 303 302 299 299 296 297 297 299 305 309 310 314 318 323 321 335 4 356 350 274 291 225 241 229 206 197 222 210 202 160 123 84 156 258 330 26 25 126 210 185 228 179 87 56
291 299 302 302 303 301 298 294 294 294 296 301 307 311 318 321 320 335 330 336 340 330 43 274 216 246 193 177 213 216 207 193 119 198 205 224 13 354 310 304 141 240 198 161 148 108 248
284 293 299 300 301 301 297 290 291 291 294 298 305 308 313 318 315 329 318 322 336 310 19 165 186 188 183 173 138 204 210 208 205 210 82 255 350 311 316 266 159 272 69 56 91 121 79
272 285 293 297 297 299 297 290 288 290 292 295 300 303 305 307 310 326 328 320 318 40 323 358 159 166 119 205 217 46 177 204 267 172 192 265 274 237 218 338 271 153 76 54 47 59 26
262 273 285 293 294 296 296 291 286 288 291 292 294 297 298 295 295 319 317 330 37 107 337 269 204 139 166 154 253 164 221 255 175 77 291 349 294 285 222 10 19 51 66 5 7 1 226
254 263 276 287 292 294 295 291 288 287 290 293 293 293 288 287 300 296 323 40 68 275 267 293 138 83 155 160 236 189 147 234 235 109 87 103 330 341 357 178 156 70 128 138 248 252 272
252 256 267 278 288 290 292 292 287 288 292 297 297 296 291 313 225 272 332 65 221 231 291 326 57 93 330 268 186 139 193 206 221 168 168 167 260 309 20 58 25 170 73 164 108 16 38
250 252 260 271 282 286 289 290 286 286 297 306 310 310 304 202 179 277 68 237 253 237 321 4 81 121 144 277 168 156 189 218 228 189 169 210 298 233 202 34 50 129 123 41 21 351 305
243 250 254 264 274 281 284 287 284 283 296 306 319 316 10 176 194 279 157 238 280 297 309 41 15 0 191 266 188 164 176 280 208 139 111 133 122 282 132 182 205 344 36 56 108 126 171
240 243 249 256 268 276 279 281 279 279 291 305 319 319 330 179 130 47 208 206 308 295 358 30 98 336 22 320 94 127 191 230 356 166 138 169 142 223 236 301 222 160 157 135 123 240 222
238 238 243 249 260 270 272 271 266 266 287 306 298 284 197 177 136 290 287 286 272 300 338 16 342 38 10 347 64 45 353 1 36 76 143 180 37 39 350 351 356 355 207 129 104 88 194
238 235 237 244 252 261 264 261 250 247 255 253 291 337 223 223 249 155 331 279 302 304 268 207 295 48 33 15 4 24 25 354 23 77 90 114 99 148 192 212 214 304 283 140 132 123 187
242 232 229 236 245 256 257 249 238 233 235 226 235 271 346 284 267 228 178 279 315 309 358 333 47 38 198 65 2 2 4 3 38 25 62 96 117 195 227 251 239 245 10 171 191 168 188
242 231 226 232 240 243 241 241 237 225 220 233 245 348 338 285 285 231 190 241 214 272 48 351 69 66 64 95 103 313 327 33 56 353 52 6 193 96 317 305 317 317 30 333 40 147 273
246 231 224 228 236 239 237 232 229 226 215 221 221 284 312 299 303 144 221 248 260 180 13 73 91 99 55 344 303 299 263 292 218 180 106 101 138 104 265 345 342 10 323 28 350 6 282
243 229 222 226 233 234 230 229 225 223 218 215 232 257 267 279 297 301 307 296 278 265 219 318 85 103 354 336 319 308 291 337 236 238 172 133 100 108 226 18 25 246 15 190 125 32 1
237 233 223 225 231 230 224 224 224 223 223 217 226 266 314 280 295 310 318 301 312 7 206 188 78 123 50 18 51 23 349 7 332 33 240 149 128 118 142 185 275 20 306 31 190 302 339
232 231 225 224 228 227 220 220 221 222 225 222 224 240 255 289 247 322 314 354 2 6 346 87 50 171 15 76 66 103 233 242 307 339 94 73 68 112 117 152 204 238 317 303 99 282 348
227 219 229 223 225 224 217 217 219 222 224 221 223 228 220 256 274 346 23 343 352 6 265 332 10 69 29 71 83 142 252 229 269 236 326 3 12 112 116 201 285 269 329 217 91 242 143
221 216 224 222 222 220 214 215 217 220 221 222 218 224 215 250 272 281 286 325 348 9 107 347 68 22 42 67 114 211 174 263 12 5 25 132 112 131 113 84 283 7 295 193 199 187 170
216 219 220 220 218 215 210 213 213 218 219 220 220 224 222 241 273 275 253 276 302 295 321 16 98 130 135 92 115 121 34 35 135 343 341 357 171 197 176 224 284 291 255 233 208 211 220